| time (UTC) | temp C | wind direction | speed KPH | gust KPH | rain 1hr cm | rain 24hr cm | rain mn cm | humidity % | barometer mb |
| 20260504200005 | 12 | 239 | 3.2 | 16.1 | 0.00 | 0.05 | 0.08 | 68 | 1007.4 |
| 20260504194505 | 12 | 246 | 3.2 | 12.9 | 0.00 | 0.05 | 0.08 | 68 | 1007.1 |
| 20260504193005 | 12 | 246 | 3.2 | 9.7 | 0.00 | 0.05 | 0.08 | 69 | 1007.1 |
| 20260504191505 | 13 | 225 | 1.6 | 12.9 | 0.00 | 0.05 | 0.08 | 68 | 1006.6 |
| 20260504190004 | 13 | 226 | 4.8 | 14.5 | 0.00 | 0.05 | 0.08 | 66 | 1006.6 |
| 20260504183005 | 14 | 257 | 4.8 | 16.1 | 0.00 | 0.05 | 0.08 | 64 | 1006.4 |
| 20260504180005 | 14 | 254 | 9.7 | 16.1 | 0.00 | 0.05 | 0.08 | 64 | 1006.0 |
| 20260504173005 | 15 | 250 | 8.0 | 16.1 | 0.00 | 0.05 | 0.08 | 59 | 1005.6 |
| 20260504081503 | 12 | 217 | 3.2 | 12.9 | 0.00 | 0.05 | 0.08 | 86 | 1004.5 |
| 20260504050005 | 8 | 6 | 9.7 | 19.3 | 0.00 | 0.05 | 0.08 | 91 | 1003.7 |
| 20260504041504 | 8 | 313 | 3.2 | 4.8 | 0.00 | 0.05 | 0.08 | 93 | 1003.1 |
| 20260504034504 | 8 | 59 | 0.0 | 8.0 | 0.00 | 0.05 | 0.08 | 93 | 1004.1 |
| 20260504030004 | 8 | 68 | 4.8 | 9.7 | 0.00 | 0.05 | 0.08 | 93 | 1004.1 |
| 20260504024503 | 8 | 32 | 4.8 | 8.0 | 0.00 | 0.05 | 0.08 | 93 | 1004.1 |
| 20260504023003 | 8 | 80 | 1.6 | 4.8 | 0.00 | 0.05 | 0.08 | 93 | 1004.8 |
| 20260504020003 | 8 | 90 | 1.6 | 4.8 | 0.00 | 0.05 | 0.08 | 92 | 1005.1 |
| 20260504014503 | 8 | 92 | 1.6 | 4.8 | 0.00 | 0.05 | 0.08 | 92 | 1005.8 |
| 20260504013003 | 8 | 90 | 1.6 | 3.2 | 0.00 | 0.05 | 0.08 | 92 | 1005.8 |
| 20260504010004 | 9 | 51 | 1.6 | 3.2 | 0.00 | 0.05 | 0.08 | 92 | 1005.6 |
| 20260504004503 | 9 | 49 | 3.2 | 4.8 | 0.00 | 0.05 | 0.08 | 92 | 1006.1 |
| 20260504003004 | 9 | 16 | 1.6 | 4.8 | 0.00 | 0.05 | 0.08 | 91 | 1006.1 |
| 20260503234503 | 9 | 163 | 0.0 | 12.9 | 0.08 | 0.05 | 0.08 | 91 | 1006.3 |
| 20260503223003 | 8 | 202 | 6.4 | 8.0 | 0.00 | 0.00 | 0.00 | 85 | 1007.4 |
| 20260503221504 | 8 | 38 | 0.0 | 3.2 | 0.00 | 0.00 | 0.00 | 84 | 1006.9 |
| 20260503214504 | 9 | 24 | 3.2 | 9.7 | 0.00 | 0.00 | 0.00 | 83 | 1007.2 |
| 20260503213004 | 9 | 21 | 6.4 | 9.7 | 0.00 | 0.00 | 0.00 | 83 | 1007.2 |
| 20260503211503 | 9 | 8 | 4.8 | 8.0 | 0.00 | 0.00 | 0.00 | 83 | 1007.2 |
| 20260503204504 | 10 | 11 | 8.0 | 11.3 | 0.00 | 0.00 | 0.00 | 84 | 1007.5 |
| 20260503203004 | 10 | 356 | 8.0 | 11.3 | 0.00 | 0.00 | 0.00 | 85 | 1007.7 |